www.pogodaiklimat.ru

Погода и климат >> Архив погоды >> Венгрия >> Веспрем


ПОГОДА в Веспреме

  • Прогноз погоды в Веспреме
  • Монитор погоды в Веспреме

АРХИВ ПОГОДЫ в Веспреме

Время (UTC), дата Ветер
(напр.,м/с)
 
Видим.   Явления Облачность Т
(С)
Тd
(С)
f
(%)
Тe
(С)
Тes
(С)
Комфортность P
(гПа)
Po
(гПа)
Тmin
(С)
Tmax
(С)
R
(мм)
R24
(мм)
S
(см)
10 13.09 н/о н/о +23.7 +12.7 50 1029.9 997.1
11 13.09 СЗ 5
{7}
н/о н/о +24.2 +12.5 48 +26 +26 жарко 1029.5 996.7
12 13.09 СЗ 4
{7}
н/о н/о +24.6 +11.9 45 +26 +26 жарко 1029.0 996.3
13 13.09 С 5
{8}
н/о н/о +24.4 +12.0 46 +26 +26 жарко 1028.7 996.0
14 13.09 С 4
{7}
н/о н/о +23.2 +13.1 53 +26 +26 жарко 1028.6 995.7
15 13.09 С 2
{7}
н/о н/о +22.1 +12.9 56 +25 +25 комфорт 1028.5 995.5
16 13.09 С 3 н/о н/о +22.6 +13.4 56 +26 +26 жарко 1028.2 995.3
17 13.09 С 2 н/о н/о +20.8 +13.5 63 +24 +24 комфорт 1028.5 995.4
18 13.09 С 2 н/о н/о +19.9 +13.4 66 +22 +22 комфорт 1028.8 995.6 +25.1
19 13.09 СЗ 1 н/о н/о +18.6 +13.5 72 +20 +20 1029.2 995.8
20 13.09 СЗ 2 н/о н/о +18.5 +12.9 70 +20 +20 1029.4 996.0
21 13.09 СЗ 1 н/о н/о +18.0 +13.3 74 +19 +19 1029.6 996.1
22 13.09 СЗ 2 н/о н/о +18.1 +13.2 73 +19 +19 1029.4 996.0
23 13.09 СЗ 1 н/о н/о +17.3 +13.2 77 +18 +18 1029.6 996.1
00 14.09 С 1 н/о н/о +16.9 +13.0 78 +18 +18 1029.5 995.9
01 14.09 СЗ 3 н/о н/о +15.1 +12.1 82 +14 +14 1029.5 995.7
02 14.09 С 2 н/о н/о +15.5 +12.8 84 +15 +15 1029.4 995.7
03 14.09 СЗ 3 н/о н/о +15.5 +13.0 85 +15 +15 1029.5 995.8
04 14.09 СЗ 3 н/о н/о +15.0 +12.7 86 +14 +14 1029.5 995.7
05 14.09 СЗ 3 н/о н/о +15.2 +13.1 87 +14 +14 1029.9 996.1
06 14.09 С 2 н/о н/о +17.1 +13.8 81 +17 +17 1029.9 996.3 +14.8
07 14.09 С 4 н/о н/о +19.0 +14.3 74 +20 +20 1030.2 996.8
08 14.09
{7}
н/о н/о +21.1 +15.0 68 1030.2 997.1
09 14.09 н/о н/о +21.3 +13.5 61 1030.3 997.2
10 14.09 С 5
{8}
н/о н/о +21.9 +12.7 56 +24 +24 комфорт 1030.2 997.2
11 14.09 С 3
{8}
н/о н/о +22.1 +13.2 57 +25 +25 комфорт 1030.0 997.0
12 14.09 СЗ 3 н/о н/о +22.7 +12.6 53 +25 +25 комфорт 1029.4 996.5
13 14.09 С 3
{7}
н/о н/о +22.8 +11.8 50 +25 +25 комфорт 1028.9 996.0
14 14.09 С 4
{7}
н/о н/о +22.5 +12.2 52 +25 +25 комфорт 1028.6 995.7
15 14.09 С 4
{7}
н/о н/о +21.7 +11.7 53 +24 +24 комфорт 1028.5 995.5
16 14.09 С 3
{8}
н/о н/о +20.3 +11.8 58 +22 +22 комфорт 1028.4 995.2
17 14.09 С 2 н/о н/о +18.5 +11.8 65 +20 +20 1028.7 995.3
18 14.09 С 3 н/о н/о +16.8 +11.5 71 +17 +17 1029.2 995.6 +23.7
19 14.09 С 3 н/о н/о +15.8 +10.1 69 +15 +15 1029.7 996.0
20 14.09 С 3 н/о н/о +15.6 +8.1 61 +15 +15 1030.1 996.3
21 14.09 С 4 н/о н/о +15.1 +6.7 57 +14 +14 1029.9 996.1
22 14.09 СВ 1 н/о н/о +14.6 +5.9 56 +15 +15 1030.1 996.2
23 14.09 С 3 н/о н/о +13.2 +6.5 64 +12 +12 1030.1 996.1
00 15.09 СВ 1 н/о н/о +11.9 +6.6 70 +12 +12 1030.1 995.9
01 15.09 С 1 н/о н/о +10.0 +7.2 83 +10 +10 1030.2 995.8
02 15.09 В 1 н/о н/о +10.4 +6.5 77 +10 +10 1029.9 995.5
03 15.09 С 1 н/о н/о +9.6 +6.5 81 +9 +9 1029.7 995.3
04 15.09 штиль 0 н/о н/о +9.2 +5.9 80 +9 +9 1029.5 995.0
05 15.09 штиль 0 н/о н/о +9.5 +6.6 82 +9 +9 1029.3 994.9
06 15.09 штиль 0 н/о н/о +12.4 +7.7 73 +12 +12 1029.1 995.0 +8.0
07 15.09 В 1 н/о н/о +15.0 +7.3 60 +16 +16 1029.0 995.2
08 15.09 ЮВ 2 н/о н/о +16.5 +7.7 56 +17 +17 1028.4 994.8
09 15.09 ЮЗ 1 н/о н/о +17.9 +8.5 54 +19 +19 1028.1 994.7
10 15.09 ЮВ 1 н/о н/о +19.1 +9.3 53 +21 +21 комфорт 1027.2 993.9
11 15.09 Ю 2 н/о н/о +20.4 +10.2 52 +23 +23 комфорт 1026.4 993.3
12 15.09 Ю 4
{7}
н/о н/о +21.7 +10.5 49 +23 +23 комфорт 1025.5 992.6
13 15.09 ЮЗ 3
{7}
н/о н/о +22.3 +11.1 49 +24 +24 комфорт 1024.6 991.8
14 15.09 З 4
{7}
н/о н/о +22.9 +11.9 50 +25 +25 комфорт 1023.7 991.0
15 15.09 ЮЗ 4 н/о н/о +22.7 +12.1 51 +25 +25 комфорт 1023.2 990.5
16 15.09 З 3 н/о н/о +22.3 +12.3 53 +25 +25 комфорт 1022.7 989.9
17 15.09 ЮЗ 2 н/о н/о +19.8 +12.6 63 +22 +22 комфорт 1022.3 989.3
18 15.09 ЮЗ 2 н/о н/о +17.4 +12.1 71 +18 +18 1022.4 989.1 +23.3
19 15.09 ЮЗ 2 н/о н/о +17.3 +12.4 73 +18 +18 1022.3 989.0
20 15.09 ЮЗ 2 н/о н/о +17.3 +12.4 73 +18 +18 1022.1 988.8
21 15.09 ЮЗ 2 н/о н/о +16.9 +12.6 76 +17 +17 1021.9 988.6
22 15.09 З 3 н/о н/о +17.4 +13.3 77 +17 +17 1021.7 988.4
23 15.09 З 1 н/о н/о +16.7 +13.0 79 +18 +18 1021.4 988.1
00 16.09 штиль 0 н/о н/о +16.3 +13.2 82 +16 +16 1021.2 987.8
01 16.09 ЮЗ 2 н/о н/о +15.9 +12.5 80 +16 +16 1020.9 987.5
02 16.09 СЗ 2 н/о н/о +15.6 +12.7 83 +15 +15 1020.3 986.9
03 16.09 СЗ 2 н/о н/о +16.1 +12.7 80 +16 +16 1020.2 986.8
04 16.09 С 2 н/о н/о +15.4 +12.3 82 +15 +15 1020.0 986.6
05 16.09 С 1 н/о н/о +15.8 +13.3 85 +16 +16 1019.9 986.5
06 16.09 СЗ 2 н/о н/о +18.6 +14.9 79 +20 +20 1019.7 986.6 +14.7
07 16.09 СЗ 2 н/о н/о +21.1 +15.2 69 +24 +24 комфорт 1019.5 986.7
08 16.09 СЗ 1 н/о н/о +23.6 +15.4 60 +27 +27 жарко 1019.1 986.6
09 16.09 СЗ 1 н/о н/о +25.1 +15.1 54 +28 +28 жарко 1018.7 986.4
10 16.09 СЗ 3 н/о н/о +25.4 +14.8 52 +28 +28 жарко 1018.6 986.3
11 16.09 СЗ 2 н/о н/о +26.3 +16.3 54 +30 +30 душно 1018.0 985.8
12 16.09 С 1
{7}
н/о н/о +26.3 +16.5 55 +30 +30 душно 1017.4 985.2
13 16.09 С 2 н/о н/о +26.1 +16.4 55 +30 +30 душно 1016.9 984.7
14 16.09 З 2 н/о н/о +25.7 +15.1 52 +29 +29 душно 1016.4 984.2
15 16.09 ЮЗ 2 н/о н/о +26.1 +15.8 53 +29 +29 жарко 1015.7 983.6
16 16.09 Ю 2 н/о н/о +25.3 +16.2 57 +29 +29 душно 1015.6 983.4
17 16.09 штиль 0 н/о н/о +22.0 +16.7 72 +26 +26 душно 1015.7 983.1
18 16.09 штиль 0 н/о н/о +20.4 +15.8 75 +23 +23 комфорт 1015.7 983.0 +27.1
19 16.09 С 1 н/о н/о +19.7 +16.7 83 +23 +23 комфорт 1016.3 983.5
20 16.09 Ю 1 н/о н/о +20.0 +16.2 79 +24 +24 комфорт 1016.1 983.3
21 16.09 штиль 0 н/о н/о +18.9 +16.1 84 +20 +20 1015.9 983.0
22 16.09 СВ 3
{7}
н/о н/о +18.7 +15.8 83 +20 +20 1016.3 983.3
23 16.09 н/о н/о +19.0 +16.4 85 1015.9 983.0
00 17.09 З 4
{7}
н/о н/о +19.5 +16.2 81 +21 +21 комфорт 1016.1 983.2 0.3
01 17.09 СЗ 1 н/о н/о +18.3 +16.5 89 +20 +20 1015.7 982.7
02 17.09 З 3 н/о н/о +18.6 +15.8 84 +20 +20 1015.3 982.4
03 17.09 ЮЗ 2 н/о н/о +18.0 +15.1 83 +19 +19 1014.3 981.3
04 17.09 СЗ 2 н/о н/о +17.2 +15.4 89 +18 +18 1014.9 981.8
05 17.09 СЗ 1 н/о н/о +17.0 +14.5 85 +18 +18 1014.7 981.6
06 17.09 З 2 н/о н/о +17.8 +14.1 79 +18 +18 1015.2 982.2 +16.9 0.6
07 17.09 З 2 н/о н/о +17.8 +14.3 80 +18 +18 1015.6 982.6
08 17.09 З 2 н/о н/о +18.3 +14.6 79 +19 +19 1015.9 982.9
09 17.09 СЗ 3 н/о н/о +19.3 +14.1 72 +21 +21 комфорт 1016.3 983.4
10 17.09 СЗ 2 н/о н/о +19.9 +14.7 72 +23 +23 комфорт 1015.9 983.1
11 17.09 СЗ 3 н/о н/о +21.0 +14.9 68 +25 +25 комфорт 1015.7 983.0
12 17.09 СЗ 4 н/о н/о +20.1 +13.6 66 +22 +22 комфорт 1015.5 982.7
13 17.09 СЗ 3 н/о н/о +21.0 +14.2 65 +24 +24 комфорт 1014.8 982.1
14 17.09 З 2 н/о н/о +20.7 +14.4 67 +24 +24 комфорт 1014.2 981.5
15 17.09 С 2 н/о н/о +20.8 +14.7 68 +24 +24 комфорт 1013.8 981.2
16 17.09 СЗ 2 н/о н/о +18.9 +15.6 81 +21 +21 комфорт 1014.0 981.1
17 17.09 СЗ 2 н/о н/о +18.0 +16.0 88 +19 +19 1014.0 981.0
18 17.09 С 2 н/о н/о +16.6 +15.8 95 +17 +17 1014.4 981.3 +21.8 2
19 17.09 СЗ 1 н/о н/о +16.1 +14.5 90 +17 +17 1014.8 981.6
20 17.09 СЗ 4
{8}
н/о н/о +16.9 +13.2 79 +16 +16 1014.8 981.7
21 17.09 С 3
{8}
н/о н/о +16.3 +12.5 78 +16 +16 1015.4 982.2
22 17.09 С 4
{8}
н/о н/о +15.8 +11.2 74 +15 +15 1015.6 982.3
23 17.09 С 5
{11}
н/о н/о +15.7 +10.2 70 +15 +15 1015.8 982.5
00 18.09 С 4
{11}
н/о н/о +15.1 +9.9 71 +14 +14 1015.9 982.6 0.1
01 18.09 С 4
{10}
н/о н/о +14.6 +9.6 72 +13 +13 1016.4 983.0
02 18.09
{8}
н/о н/о +13.3 +7.7 69 1017.4 983.8
03 18.09 С 6
{10}
н/о н/о +12.4 +5.1 61 +10 +10 1018.2 984.5
04 18.09 С 6
{11}
н/о н/о +11.7 +3.7 58 +9 +9 1018.9 985.1
05 18.09 С 7
{12}
н/о н/о +11.3 +3.8 60 +8 +8 1020.1 986.2
06 18.09 С 6
{10}
н/о н/о +11.5 +3.8 59 +9 +9 1020.8 986.9 +11.1 0.1
07 18.09 С 7
{12}
н/о н/о +12.3 +3.8 56 +10 +10 1021.8 987.9
08 18.09 С 8
{15}
н/о н/о +12.4 +3.4 54 +10 +10 1022.7 988.8
09 18.09 С 6
{13}
н/о н/о +13.9 +3.7 50 +12 +12 1022.5 988.8
10 18.09 С 7
{12}
н/о н/о +14.4 +2.3 44 +13 +13 1022.9 989.2
11 18.09 С 5
{11}
н/о н/о +15.3 +3.1 44 +14 +14 1023.2 989.6
12 18.09 С 4
{9}
н/о н/о +16.1 +2.9 41 +15 +15 1022.8 989.3
13 18.09 С 5
{8}
н/о н/о +16.5 +1.0 35 +16 +16 1022.6 989.2
14 18.09 С 4
{10}
н/о н/о +16.5 +0.2 33 +16 +16 1022.3 988.9
15 18.09 С 3
{7}
н/о н/о +16.0 -2.5 28 +16 +16 1022.4 988.9
16 18.09 С 2
{7}
н/о н/о +14.9 -2.5 30 +15 +15 1022.5 988.9
17 18.09 С 1 н/о н/о +13.0 -1.0 38 +14 +14 1022.9 989.1
18 18.09 С 2 н/о н/о +11.8 +0.9 47 +11 +11 1023.6 989.6 +17.0
19 18.09 СЗ 1 н/о н/о +10.7 +0.7 50 +11 +11 1024.3 990.2
20 18.09 С 1 н/о н/о +9.8 +1.7 57 +10 +10 1024.5 990.3
21 18.09 СЗ 1 н/о н/о +9.4 +1.1 56 +9 +9 1024.6 990.3
22 18.09 С 1 н/о н/о +8.6 +1.3 60 +8 +8 1024.8 990.4
23 18.09 штиль 0 н/о н/о +8.8 +0.3 55 +8 +8 1024.9 990.5
00 19.09 СЗ 1 н/о н/о +8.2 +0.4 58 +8 +8 1025.0 990.5
01 19.09 СЗ 1 н/о н/о +8.4 -0.1 55 +8 +8 1024.6 990.2
02 19.09 штиль 0 н/о н/о +7.6 +0.3 60 +7 +7 1024.7 990.2
03 19.09 СЗ 1 н/о н/о +8.3 +0.3 57 +8 +8 1024.7 990.3
04 19.09 С 1 н/о н/о +7.6 +0.8 62 +7 +7 1025.0 990.5
05 19.09 штиль 0 н/о н/о +7.5 +0.9 63 +7 +7 1025.4 990.8
06 19.09 штиль 0 н/о н/о +9.3 +3.3 66 +9 +9 1025.6 991.3 +7.4
07 19.09 С 2 н/о н/о +12.4 +4.6 59 +12 +12 1025.7 991.7
08 19.09 С 3 н/о н/о +14.0 +4.6 53 +13 +13 1025.9 992.1
09 19.09 С 3 н/о н/о +14.0 +5.4 56 +13 +13 1026.1 992.3
10 19.09 С 5
{8}
н/о н/о +15.1 +3.9 47 +14 +14 1025.8 992.1
11 19.09 СЗ 6
{10}
н/о н/о +15.9 +4.0 45 +15 +15 1025.5 991.9
12 19.09 СЗ 5
{9}
н/о н/о +15.6 +2.7 42 +15 +15 1025.2 991.6
13 19.09 С 5
{11}
н/о н/о +16.2 +2.2 39 +15 +15 1025.0 991.5
14 19.09 С 5
{11}
н/о н/о +15.7 +2.5 41 +15 +15 1025.1 991.5
15 19.09 С 5
{10}
н/о н/о +14.9 +0.7 38 +14 +14 1025.0 991.3
16 19.09 С 5
{9}
н/о н/о +13.7 +0.4 40 +12 +12 1025.3 991.5
17 19.09 С 2
{7}
н/о н/о +11.5 +0.6 47 +11 +11 1026.0 991.9
18 19.09 С 2 н/о н/о +11.1 +0.5 48 +10 +10 1026.7 992.5 +17.2
19 19.09 С 1 н/о н/о +10.5 +1.3 53 +11 +11 1027.2 992.9
20 19.09 штиль 0 н/о н/о +9.8 +1.7 57 +9 +9 1027.8 993.4
21 19.09 С 3 н/о н/о +9.9 +2.0 58 +8 +8 1027.8 993.5
22 19.09 С 4
{7}
н/о н/о +10.2 +1.1 53 +8 +8 1027.9 993.6
23 19.09 С 3 н/о н/о +9.0 +1.7 60 +7 +7 1028.2 993.7
00 20.09 С 3 н/о н/о +9.1 +2.2 62 +7 +7 1028.3 993.8
01 20.09 С 1 н/о н/о +7.5 +2.2 69 +7 +7 1028.1 993.5
02 20.09 С 2 н/о н/о +7.4 +2.3 70 +6 +6 1028.2 993.5
03 20.09 С 2 н/о н/о +6.5 +2.2 74 +4 +4 1028.3 993.5
04 20.09 С 3 н/о н/о +5.8 +2.6 80 +3 +3 1028.1 993.2
05 20.09 С 2 н/о н/о +6.3 +2.8 78 +4 +4 1028.3 993.5
06 20.09 С 1 н/о н/о +6.9 +3.2 77 +6 +6 1028.7 994.0 +5.2
07 20.09 С 3 н/о н/о +10.0 +4.4 68 +8 +8 1029.1 994.7
08 20.09 С 3 н/о н/о +11.8 +4.3 60 +10 +10 1029.3 995.1
09 20.09 С 3 н/о н/о +12.5 +2.6 51 +11 +11 1029.0 994.9
10 20.09 СВ 2 н/о н/о +14.1 +3.6 49 +14 +14 1028.6 994.7
11 20.09 С 3 н/о н/о +14.5 +2.1 43 +14 +14 1028.0 994.2

 

Местоположение метеостанции Веспрем (Венгрия): широта 47.07 долгота 17.83 высота над уровнем моря 281 м.

В архиве по умолчанию представлена погода в Веспреме за последнюю неделю. Архивные данные за месяц целиком и за предыдущие месяцы, начиная с января 2011 года, Вы можете получить, выбрав интересующий диапазон дат из раскрывающегося списка и нажав кнопку "Ввод!".


*Определитесь, кто Вы:
робот инопланетянин человек

Внимание! Время в таблицах - всемирное. Для получения местного времени необходимо прибавить поправку, которая равна 1 ч.

Смотрите также архив погоды в соседних городах и на ближайших метеорологических станциях:

Погода в Шиофоке (Венгрия) (24 км)
Погода на Базе ВВС Папа (Венгрия) (41 км)
Погода в Агарде (Венгрия) (61 км)
Погода в Пер аэропорту (Венгрия) (61 км)
Погода в Шармеллеке (Венгрия) (66 км)
Погода в Дьере (Венгрия) (73 км)
Погода в Тате (Венгрия) (74 км)
Погода в Капошваре (Венгрия) (77 км)
Погода в Залаэгерсеге (Венгрия) (81 км)
Погода в Гурбаново (Словакия) (93 км)

Пояснения к столбцам:

Ветер - указаны скорость ветра в м/с - средняя за 10 мин, порывы в срок и между сроками (в фигурных скобках) и направление, откуда дует ветер: С - северный, СВ - северо-восточный, В - восточный, ЮВ - юго-восточный, Ю - южный, ЮЗ - юго-западный, З - западный, СЗ - северо-западный.
Видимость - горизонтальная дальность видимости в метрах или километрах. При видимости от 1 до 10 км при отсутствии осадков обычно наблюдается дымка, при ухудшении видимости до 1 км и менее - туман. В сухую погоду видимость может ухудшаться дымом, пылью или мглою.
Явления - указаны атмосферные явления, наблюдавшиеся в срок или в последний час перед сроком; фигурными скобками обозначены явления, наблюдавшиеся между сроками (за 1-3 часа до срока); квадратными скобками обозначены град или гололедные отложения с указанием их диаметра в мм.
Облачность - указаны через наклонную черту общая и нижняя облачность в баллах и высота нижней границы облаков в метрах; квадратными скобками обозначены формы облаков: Ci - перистые, Cs - перисто-слоистые, Cc - перисто-кучевые, Ac - высококучевые, As - высокослоистые, Sc - слоисто-кучевые, Ns - слоисто-дождевые, Cu - кучевые, Cb - кучево-дождевые. Подробнее классификацию облаков см. в Атласе облаков (PDF).
T - Температура воздуха - температура, измеренная на высоте 2 м над землей.
Td - Температура точки росы - температура, при понижении до которой содержащийся в воздухе водяной пар достигнет насыщения.
f - Относительная влажность воздуха - влажноcть воздуха, измеренная на высоте 2 м над землей.
Te - Эффективная температура - температура, которую ощущает одетый по сезону человек в тени. Характеристика душности погоды. При расчете учитывается влияние влажности воздуха и скорости ветра на теплоощущения человека.
Tes - Эффективная температура на солнце - температура, которую ощущает человек, с поправкой на солнечный нагрев. Характеристика знойности погоды. Зависит от высоты солнца над горизонтом, облачности и скорости ветра. Ночью, в пасмурную погоду, а также при ветре 12 м/с и более поправка равна нулю.
P - Атмосферное давление - приведенное к уровню моря атмосферное давление.
Po - Атмосферное давление - измеренное на уровне метеостанции атмосферное давление.
Tmin - Минимальная температура - минимум температуры воздуха на высоте 2 м над землей.
Tmax - Максимальная температура - максимум температуры воздуха на высоте 2 м над землей.
R - Количество осадков - Количество выпавших осадков за период времени, мм. При наведении курсора мыши на число - период времени, за который выпало указанное количество осадков.
R24 - Количество осадков - Количество выпавших осадков за 24 часа, мм.
S - Снежный покров - Высота снежного покрова, см. При наведении курсора мыши на число - состояние снежного покрова и степень покрытия местности в баллах.